Location: Eaton
(41.3139°N, 82.0207°W)
Time: 16:09:06
(UTC+00:00)

Resurs 1-4 Rocket - Pass Details

Date: 17 June 2021
Orbit: 800 x 813 km, 98.6° (Epoch: 02 August)

Event Time Altitude Azimuth Distance (km) Brightness Sun altitude
Rises 07:32:40 0° 8° (N) 3,340 6.5 -19.2°
Reaches altitude 10° 07:35:03 10° 3° (N) 2,406 5.5 -19.0°
Maximum altitude 07:40:11 51° 289° (WNW) 1,018 2.5 -18.5°
Enters shadow 07:42:26 31° 231° (SW) 1,398 2.8 -18.3°
